Latest Coastal Weather Observations for Flinders Reef

IDQ60701

Issued at 6:01 pm EST Tuesday 1 September 2015 (issued every 10 minutes, with the page automatically refreshed every 10 minutes)

About coastal observations | Map of coastal stations | Coastal observations for QLD | Marine services | Other Formats
Station Details ID: 200783 Name: FLINDERS REEF Lat: -17.72 Lon: 148.45 Height: 2.6 m
Data from the previous 72 hours. | See also: Recent months at Flinders Reef
Date/Time
EST
Temp

°C
Wind Pressure Rain
since 9am
mm
Weather Cloud Vis
km
Sea
Height
m
Swell
Dir
 
Speed
knots
Gust
knots
hPa Trend Height
m
Period
s
Dir
01/06:00pm - ENE 10 11 1014.6 - - - - - - - - -
01/05:30pm - NNE 8 9 1014.6 - - - - - - - - -
01/05:24pm - NNE 9 - 1014.5 - - - - - - - - -
01/05:00pm - NE 9 11 1014.5 - - - - - - - - -
01/04:30pm - NE 8 10 1014.2 - - - - - - - - -
01/04:24pm - NNE 9 - 1014.1 - - - - - - - - -
01/04:00pm - N 8 10 1014.1 - - - - - - - - -
01/03:30pm - N 9 11 1014.1 - - - - - - - - -
01/03:24pm - N 9 - 1014.1 - - - - - - - - -
01/03:00pm - NNE 9 11 1014.3 - - - - - - - - -
01/02:30pm - N 9 11 1014.6 - - - - - - - - -
01/02:24pm - N 9 - 1014.5 - - - - - - - - -
01/02:00pm - N 7 9 1015.0 - - - - - - - - -
01/01:30pm - NNE 7 9 1015.4 - - - - - - - - -
01/01:24pm - NNE 7 - 1015.4 - - - - - - - - -
01/01:00pm - NNE 8 10 1015.8 - - - - - - - - -
01/12:30pm - N 9 11 1016.2 - - - - - - - - -
01/12:24pm - NNE 8 - 1016.1 - - - - - - - - -
01/12:00pm - NNE 8 9 1016.7 - - - - - - - - -
01/11:30am - NNE 7 8 1017.2 - - - - - - - - -
01/11:24am - NNE 7 - 1017.2 - - - - - - - - -
01/11:00am - NNE 7 9 1017.6 - - - - - - - - -
01/10:30am - NNE 8 9 1017.9 - - - - - - - - -
01/10:24am - NNE 8 - 1017.9 - - - - - - - - -
01/10:00am - NNE 8 10 1018.1 - - - - - - - - -
01/09:30am - NNE 8 11 1018.0 - - - - - - - - -
01/09:24am - NNE 8 - 1017.9 - - - - - - - - -
01/09:00am - NE 8 10 1017.8 - - - - - - - - -
01/08:30am - NNE 9 10 1017.5 - - - - - - - - -
01/08:24am - NNE 8 - 1017.4 - - - - - - - - -
01/08:00am - NNE 8 9 1017.2 - - - - - - - - -
01/07:30am - NE 8 10 1016.9 - - - - - - - - -
01/07:24am - NE 8 - 1016.7 - - - - - - - - -
01/07:00am - NNE 8 10 1016.6 - - - - - - - - -
01/06:30am - NNE 7 9 1016.3 - - - - - - - - -
01/06:24am - NNE 7 - 1016.2 - - - - - - - - -
01/06:00am - NNE 7 8 1015.9 - - - - - - - - -
01/05:30am - NNE 9 11 1015.4 - - - - - - - - -
01/05:24am - NNE 9 - 1015.2 - - - - - - - - -
01/05:00am - NNE 10 11 1015.1 - - - - - - - - -
01/04:30am - NE 9 11 1015.0 - - - - - - - - -
01/04:24am - NE 9 - 1014.9 - - - - - - - - -
01/04:00am - NE 10 12 1015.0 - - - - - - - - -
01/03:30am - NE 11 13 1015.0 - - - - - - - - -
01/03:24am - NE 11 - 1015.0 - - - - - - - - -
01/03:00am - NNE 11 12 1015.2 - - - - - - - - -
01/02:30am - NE 11 13 1015.2 - - - - - - - - -
01/02:24am - NE 11 - 1015.1 - - - - - - - - -
01/02:00am - NNE 10 11 1015.4 - - - - - - - - -
01/01:30am - NE 10 12 1015.5 - - - - - - - - -
01/01:24am - NE 10 - 1015.5 - - - - - - - - -
01/01:00am - NE 10 11 1015.7 - - - - - - - - -
01/12:30am - NE 11 12 1015.8 - - - - - - - - -
01/12:24am - NE 11 - 1015.7 - - - - - - - - -
01/12:00am - NE 11 13 1015.8 - - - - - - - - -
 
Date/Time
EST
Temp

°C
Wind Pressure Rain
since 9am
mm
Weather Cloud Vis
km
Sea
Height
m
Swell
Dir
 
Speed
knots
Gust
knots
hPa Trend Height
m
Period
s
Dir
31/11:30pm - NE 13 15 1015.8 - - - - - - - - -
31/11:24pm - NE 12 - 1015.7 - - - - - - - - -
31/11:00pm - NE 11 13 1015.9 - - - - - - - - -
31/10:30pm - ENE 12 14 1015.8 - - - - - - - - -
31/10:24pm - NE 13 - 1015.7 - - - - - - - - -
31/10:00pm - ENE 11 13 1015.8 - - - - - - - - -
31/09:30pm - ENE 12 13 1015.8 - - - - - - - - -
31/09:24pm - ENE 11 - 1015.8 - - - - - - - - -
31/09:00pm - ENE 10 11 1015.7 - - - - - - - - -
31/08:30pm - ENE 9 10 1015.5 - - - - - - - - -
31/08:24pm - ENE 8 - 1015.4 - - - - - - - - -
31/08:00pm - NE 9 10 1015.3 - - - - - - - - -
31/07:30pm - ENE 8 9 1015.1 - - - - - - - - -
31/07:24pm - ENE 8 - 1014.9 - - - - - - - - -
31/07:00pm - ENE 7 8 1014.8 - - - - - - - - -
31/06:30pm - NE 5 6 1014.5 - - - - - - - - -
31/06:24pm - ENE 6 - 1014.4 - - - - - - - - -
31/06:00pm - ENE 4 6 1014.4 - - - - - - - - -
31/05:30pm - E 5 6 1014.2 - - - - - - - - -
31/05:24pm - E 5 - 1014.1 - - - - - - - - -
31/05:00pm - ESE 6 7 1014.0 - - - - - - - - -
31/04:30pm - SE 5 7 1013.8 - - - - - - - - -
31/04:24pm - SE 5 - 1013.8 - - - - - - - - -
31/04:00pm - ESE 5 7 1013.8 - - - - - - - - -
31/03:30pm - ESE 5 6 1013.8 - - - - - - - - -
31/03:24pm - ESE 6 - 1013.7 - - - - - - - - -
31/03:00pm - ESE 6 7 1014.0 - - - - - - - - -
31/02:30pm - SE 6 7 1014.4 - - - - - - - - -
31/02:24pm - SE 6 - 1014.4 - - - - - - - - -
31/02:00pm - SE 5 7 1014.8 - - - - - - - - -
31/01:30pm - SSE 7 9 1015.2 - - - - - - - - -
31/01:24pm - ESE 5 - 1015.1 - - - - - - - - -
31/01:00pm - ESE 5 6 1015.5 - - - - - - - - -
31/12:30pm - E 5 6 1015.6 - - - - - - - - -
31/12:24pm - E 5 - 1015.6 - - - - - - - - -
31/12:00pm - ESE 2 7 1015.9 - - - - - - - - -
31/11:30am - CALM 0 5 1016.2 - - - - - - - - -
31/11:24am - ESE 4 - 1016.2 - - - - - - - - -
31/11:00am - ESE 6 8 1016.5 - - - - - - - - -
31/10:30am - ESE 7 8 1016.8 - - - - - - - - -
31/10:24am - E 7 - 1016.8 - - - - - - - - -
31/10:00am - E 8 9 1017.1 - - - - - - - - -
31/09:30am - E 7 8 1017.1 - - - - - - - - -
31/09:24am - E 7 - 1017.1 - - - - - - - - -
31/09:00am - ESE 6 7 1017.0 - - - - - - - - -
31/08:30am - ESE 7 9 1016.7 - - - - - - - - -
31/08:24am - ESE 7 - 1016.6 - - - - - - - - -
31/08:00am - ESE 7 8 1016.5 - - - - - - - - -
31/07:30am - ESE 7 8 1016.3 - - - - - - - - -
31/07:24am - ESE 7 - 1016.1 - - - - - - - - -
31/07:00am - SE 8 9 1015.9 - - - - - - - - -
31/06:30am - SE 7 8 1015.6 - - - - - - - - -
31/06:24am - SE 8 - 1015.5 - - - - - - - - -
31/06:00am - ESE 8 9 1015.4 - - - - - - - - -
31/05:30am - SE 8 9 1015.0 - - - - - - - - -
31/05:24am - SE 7 - 1014.9 - - - - - - - - -
31/05:00am - SE 7 9 1014.8 - - - - - - - - -
31/04:30am - ESE 6 7 1014.7 - - - - - - - - -
31/04:24am - ESE 6 - 1014.6 - - - - - - - - -
31/04:00am - ESE 7 8 1014.9 - - - - - - - - -
31/03:30am - E 5 7 1015.1 - - - - - - - - -
31/03:24am - E 4 - 1015.0 - - - - - - - - -
31/03:00am - E 6 7 1015.1 - - - - - - - - -
31/02:30am - ENE 6 8 1015.1 - - - - - - - - -
31/02:24am - ENE 6 - 1015.2 - - - - - - - - -
31/02:00am - ENE 7 8 1015.3 - - - - - - - - -
31/01:30am - ENE 7 8 1015.3 - - - - - - - - -
31/01:24am - ENE 7 - 1015.3 - - - - - - - - -
31/01:00am - ENE 7 9 1015.5 - - - - - - - - -
31/12:30am - ENE 7 8 1015.6 - - - - - - - - -
31/12:24am - ENE 7 - 1015.6 - - - - - - - - -
31/12:00am - ENE 8 9 1015.8 - - - - - - - - -
 
Date/Time
EST
Temp

°C
Wind Pressure Rain
since 9am
mm
Weather Cloud Vis
km
Sea
Height
m
Swell
Dir
 
Speed
knots
Gust
knots
hPa Trend Height
m
Period
s
Dir
30/11:30pm - NE 8 9 1015.8 - - - - - - - - -
30/11:24pm - NE 8 - 1015.7 - - - - - - - - -
30/11:00pm - ENE 7 9 1016.0 - - - - - - - - -
30/10:30pm - ENE 7 8 1016.1 - - - - - - - - -
30/10:24pm - ENE 7 - 1016.0 - - - - - - - - -
30/10:00pm - ENE 7 8 1016.0 - - - - - - - - -
30/09:30pm - ENE 7 8 1016.0 - - - - - - - - -
30/09:24pm - ENE 7 - 1015.9 - - - - - - - - -
30/09:00pm - ENE 7 8 1015.9 - - - - - - - - -
30/08:30pm - ENE 7 8 1015.7 - - - - - - - - -
30/08:24pm - ENE 7 - 1015.5 - - - - - - - - -
30/08:00pm - ENE 6 7 1015.5 - - - - - - - - -
30/07:30pm - ENE 6 8 1015.2 - - - - - - - - -
30/07:24pm - ENE 6 - 1015.1 - - - - - - - - -
30/07:00pm - ENE 5 6 1015.0 - - - - - - - - -
30/06:30pm - SE 5 6 1014.7 - - - - - - - - -
30/06:24pm - SE 4 - 1014.6 - - - - - - - - -
30/06:00pm - SSE 4 5 1014.6 - - - - - - - - -
30/05:30pm - SSE 4 5 1014.4 - - - - - - - - -
30/05:24pm - SSE 4 - 1014.3 - - - - - - - - -
30/05:00pm - SSE 4 5 1014.4 - - - - - - - - -
30/04:30pm - SSE 4 5 1014.2 - - - - - - - - -
30/04:24pm - SSE 4 - 1014.1 - - - - - - - - -
30/04:00pm - SSE 4 6 1014.3 - - - - - - - - -
30/03:30pm - SSE 6 7 1014.3 - - - - - - - - -
30/03:24pm - SSE 5 - 1014.2 - - - - - - - - -
30/03:00pm - S 6 7 1014.5 - - - - - - - - -
30/02:30pm - S 6 7 1014.8 - - - - - - - - -
30/02:24pm - S 5 - 1014.8 - - - - - - - - -
30/02:00pm - S 4 6 1015.1 - - - - - - - - -
30/01:30pm - SSW 5 6 1015.4 - - - - - - - - -
30/01:24pm - N 4 - 1015.4 - - - - - - - - -
30/01:00pm - N 3 5 1015.8 - - - - - - - - -
30/12:30pm - N 4 5 1016.2 - - - - - - - - -
30/12:24pm - N 4 - 1016.2 - - - - - - - - -
30/12:00pm - N 3 4 1016.7 - - - - - - - - -
30/11:30am - CALM 0 0 1017.3 - - - - - - - - -
30/11:24am - CALM 0 - 1017.2 - - - - - - - - -
30/11:00am - N 1 3 1017.6 - - - - - - - - -
30/10:30am - N 3 4 1017.9 - - - - - - - - -
30/10:24am - N 3 - 1017.8 - - - - - - - - -
30/10:00am - N 4 6 1018.1 - - - - - - - - -
30/09:30am - N 4 5 1018.0 - - - - - - - - -
30/09:24am - N 4 - 1017.9 - - - - - - - - -
30/09:00am - N 2 4 1017.7 - - - - - - - - -
30/08:30am - N 4 5 1017.5 - - - - - - - - -
30/08:24am - N 5 - 1017.4 - - - - - - - - -
30/08:00am - N 4 5 1017.3 - - - - - - - - -
30/07:30am - N 4 5 1017.0 - - - - - - - - -
30/07:24am - N 4 - 1016.9 - - - - - - - - -
30/07:00am - N 5 6 1016.7 - - - - - - - - -
30/06:30am - ENE 6 7 1016.2 - - - - - - - - -
30/06:24am - ENE 6 - 1016.0 - - - - - - - - -
30/06:00am - ENE 7 8 1015.6 - - - - - - - - -
30/05:30am - ENE 7 9 1015.3 - - - - - - - - -
30/05:24am - ENE 7 - 1015.2 - - - - - - - - -
30/05:00am - E 6 7 1015.3 - - - - - - - - -
30/04:30am - E 7 8 1015.2 - - - - - - - - -
30/04:24am - E 7 - 1015.1 - - - - - - - - -
30/04:00am - E 9 11 1015.1 - - - - - - - - -
30/03:30am - E 10 12 1014.9 - - - - - - - - -
30/03:24am - E 10 - 1014.8 - - - - - - - - -
30/03:00am - E 9 11 1015.1 - - - - - - - - -
30/02:30am - E 10 13 1015.3 - - - - - - - - -
30/02:24am - E 10 - 1015.3 - - - - - - - - -
30/02:00am - E 11 13 1015.6 - - - - - - - - -
30/01:30am - E 11 13 1015.9 - - - - - - - - -
30/01:24am - E 11 - 1015.9 - - - - - - - - -
30/01:00am - E 12 14 1016.3 - - - - - - - - -
30/12:30am - E 11 13 1016.7 - - - - - - - - -
30/12:24am - E 11 - 1016.6 - - - - - - - - -
30/12:00am - E 11 13 1016.9 - - - - - - - - -
 
Date/Time
EST
Temp

°C
Wind Pressure Rain
since 9am
mm
Weather Cloud Vis
km
Sea
Height
m
Swell
Dir
 
Speed
knots
Gust
knots
hPa Trend Height
m
Period
s
Dir
29/11:30pm - E 11 13 1017.0 - - - - - - - - -
29/11:24pm - E 11 - 1017.0 - - - - - - - - -
29/11:00pm - E 10 12 1017.1 - - - - - - - - -
29/10:30pm - E 11 13 1017.0 - - - - - - - - -
29/10:24pm - E 12 - 1017.0 - - - - - - - - -
29/10:00pm - E 11 13 1017.0 - - - - - - - - -
29/09:30pm - ESE 11 12 1017.2 - - - - - - - - -
29/09:24pm - ESE 10 - 1017.2 - - - - - - - - -
29/09:00pm - ESE 10 12 1017.5 - - - - - - - - -
29/08:30pm - ESE 10 12 1017.4 - - - - - - - - -
29/08:24pm - ESE 11 - 1017.2 - - - - - - - - -
29/08:00pm - ESE 12 13 1017.2 - - - - - - - - -
29/07:30pm - ESE 12 13 1017.0 - - - - - - - - -
29/07:24pm - ESE 12 - 1016.9 - - - - - - - - -
29/07:00pm - ESE 11 13 1016.7 - - - - - - - - -
29/06:30pm - ESE 11 12 1016.4 - - - - - - - - -
29/06:24pm - ESE 11 - 1016.3 - - - - - - - - -

Other Formats:

Comma delimited format used in spreadsheet applications
http://www.bom.gov.au/fwo/IDQ60701/IDQ60701.94290.axf

JavaScript Object Notation format (JSON) in row-major order
http://www.bom.gov.au/fwo/IDQ60701/IDQ60701.94290.json